Terminal Aerodrome Forecast
Issued by NWS Brownsville, TX

Home | Current Version | Previous Version | Text Only | Print | Product List | Glossary On
Versions: 1 2 3 4 5 6 7 8 9 10 11 12 13 14 15 16 17 18 19 20 21 22 23 24 25 26 27 28 29 30 31 32 33 34 35 36 37 38
635
FTUS44 KBRO 221722
TAFHRL
TAF
KHRL 221722Z 2218/2318 05016G20KT P6SM FEW070 FEW180
     FM230400 07006KT P6SM FEW090 FEW250
     FM231600 10012KT P6SM FEW060 FEW250=

USA.gov is the U.S. government's official web portal to all federal, state and local government web resources and services.